STARLINK-5745, 55575

Orbit data source: Space-Track

STARLINK-5745, 55575 is a payload satellite owned by SpaceX/Seattle (US) in LEO that was launched on Sun, 12 Feb 2023 UTC via an FALCON 9 launch vehicle from the Air Force Eastern Test Range (AFETR). Payload-class satellites include a variety of spacecraft equipped with specific instruments for various scientific and technological missions. These include communications satellites like Starlink; space stations such as the ISS; scientific satellites like the Hubble; Earth observation satellites from companies like Planet Labs, Umbra, and HawkEye 360; GPS; miniature CubeSats for education and research; and military/defense satellites.

Loading next visibility...
Identifier
55575, 2023-020G
Orbit
LEO
Country
Flag of USUS
Related business
Manufacturer
SpaceX/Seattle
Mission
Operational Commercial Communications
Bus & Motor
STARLINK, Unknown motor
Mass
305 kg wet, ~290 kg dry
Launch date (UTC)
2023-02-12 (3 years ago)
Launch vehicle
FALCON 9
Launch site
Air Force Eastern Test Range (AFETR)
Object type
Payload
Rocket body
Debris
Shape & HBR
Box + 1 Pan, 10.1 m
Radar Cross Section
13.562 m², Large (>1 m²)

Expand to show TLE details & history
Last TLE update: 2 days ago

TLE from 2 days ago
0 STARLINK-5745
1 55575U 23020G   26171.42285154  .00000842  00000-0  40118-4 0  9994
2 55575  43.0025 148.5011 0001278 268.5960  91.4746 15.27578697184581
Epoch: 2026-06-20T10:08Z
TLE epoch observation values (Epoch: 2026-06-20T10:08:54.373Z)
Latitude
0.00005°
Longitude
87.6369°
Altitude
482.851 km
Speed
7.626 km/s
True Right ascension
09h 54m 00s
True Declination
0° 00' 00"
Sunlit
Object was in daylight at epoch
Visualization orbit readout
Latitude
Unknown
Longitude
Unknown
Altitude
Unknown
Speed
Unknown
Apparent Right ascension
Unknown
Apparent Declination
Unknown
Sunlit
N/A
Visualization observer readout
Local Sidereal Time
21:40:36
Azimuth
Unknown
Elevation
Unknown
Doppler factor
Unknown
Orbital elements
Apogee altitude
485.875 km
Perigee altitude
484.121 km
Semi-major axis
6,863.135 km
Eccentricity
0.00013
Inclination
43.0025°
RAAN
148.5011°
Arg. of periapsis
268.596°
True anomaly
91.48924°
Mean anomaly
91.4746°
Eccentric anomaly
91.48192°
Mean motion
3.81733 °/min
Orbital period
94.31 mins
BSTAR
0.000040118
Loading maneuver chart data...
Computing Atmospheric mass density...
Loading historical data...
Loading historical data...
Loading historical data...
Loading historical data...
Loading historical data...
Loading historical data...
Loading historical data...

Documentation

Showing up to 5 results
|